Grand Forks AFB, ND

9:32 AM CST on February 20, 2017 (GMT -0600)
Grand Forks Air Force Base

Weather History for KRDR - March, 2013

Change the Weather History Date:

Thursday, March 21, 2013

  Actual Average Record
Temperature  
Mean Temperature 0 °F -  
Max Temperature 13 °F 34 °F 68 °F (2012)
Min Temperature -13 °F 17 °F -13 °F (2013)
Degree Days  
Heating Degree Days 64    
Moisture  
Dew Point -5 °F    
Average Humidity 74    
Maximum Humidity 85    
Minimum Humidity 67    
Precipitation  
Precipitation 0.00 in - - ()
Sea Level Pressure  
Sea Level Pressure 30.17 in    
Wind  
Wind Speed 5 mph (NNW)    
Max Wind Speed 8 mph    
Max Gust Speed -    
Visibility 10 miles    
Events Snow    
Averages and records for this station are not official NWS values.
T = Trace of Precipitation, MM = Missing Value Source: NWS Daily Summary

Daily Weather History Graph

Daily Weather History Graph

Search for Another Location

Airport or City:

Trip Planner

Search our weather history database for the weather conditions in past years. The results will help you decide how hot, cold, wet, or windy it might be!

Date:

Astronomy

Mar. 21, 2013 Rise Set
Actual Time 7:29 AM CDT 7:44 PM CDT
Civil Twilight 6:58 AM CDT 8:15 PM CDT
Nautical Twilight 6:22 AM CDT 8:51 PM CDT
Astronomical Twilight 5:44 AM CDT 9:29 PM CDT
Moon 1:54 PM CDT (3/21) 4:14 AM CDT (3/21)
Length of Visible Light 13h 16m
Length of Day
12h 14m
Waxing Gibbous, 69% of the Moon is Illuminated
Mar 21
Waxing Gibbous
Mar 27
Full
Apr 2
Last Quarter
Apr 10
New
Apr 18
First Quarter

Hourly Weather History & Observations

Time (CDT) Temp. Windchill Dew Point Humidity Pressure Visibility Wind Dir Wind Speed Gust Speed Precip Events Conditions
12:55 AM -5.1 °F -19.1 °F -11.6 °F 74% 30.20 in 10.0 mi WNW 6.9 mph - N/A   Clear
1:33 AM -5.8 °F -16.7 °F -13.0 °F 71% 30.20 in 10.0 mi WNW 4.6 mph - N/A Snow Light Snow
1:34 AM -5.8 °F -16.7 °F -13.0 °F 71% 30.20 in 10.0 mi WNW 4.6 mph - N/A   Clear
1:55 AM -6.9 °F -17.9 °F -13.4 °F 73% 30.19 in 10.0 mi WNW 4.6 mph - 0.00 in   Clear
2:55 AM -9.2 °F -24.0 °F -15.2 °F 75% 30.19 in 10.0 mi WNW 6.9 mph - N/A   Clear
3:55 AM -8.5 °F -19.8 °F -14.4 °F 75% 30.17 in 10.0 mi NW 4.6 mph - N/A   Clear
4:55 AM -12.8 °F -26.8 °F -18.8 °F 75% 30.17 in 10.0 mi WNW 5.8 mph - N/A   Clear
5:55 AM -11.9 °F -25.7 °F -17.5 °F 76% 30.17 in 10.0 mi WNW 5.8 mph - N/A   Clear
6:55 AM -10.7 °F -22.3 °F -15.7 °F 78% 30.16 in 10.0 mi NW 4.6 mph - N/A   Clear
7:55 AM -13.0 °F -27.0 °F -18.9 °F 75% 30.17 in 10.0 mi North 5.8 mph - N/A   Clear
8:55 AM -9.8 °F -19.0 °F -15.9 °F 74% 30.17 in 10.0 mi NW 3.5 mph - N/A   Clear
9:55 AM -2.6 °F -10.8 °F -9.4 °F 73% 30.17 in 10.0 mi NNW 3.5 mph - N/A   Clear
10:55 AM 2.3 °F -10.2 °F -5.3 °F 71% 30.17 in 10.0 mi North 6.9 mph - N/A   Clear
11:22 AM 3.2 °F -7.8 °F -4.0 °F 72% 30.17 in 10.0 mi NNE 5.8 mph - N/A Snow Light Snow
11:45 AM 3.2 °F -4.2 °F -4.0 °F 72% 30.17 in 10.0 mi North 3.5 mph - N/A   Clear
11:55 AM 4.1 °F -3.2 °F -3.8 °F 70% 30.17 in 10.0 mi North 3.5 mph - 0.00 in   Clear
12:37 PM 6.8 °F -3.5 °F -2.2 °F 67% 30.17 in 10.0 mi NE 5.8 mph - N/A Snow Light Snow
12:41 PM 5.0 °F -2.1 °F -2.2 °F 72% 30.18 in 2.5 mi Variable 3.5 mph - N/A Snow Light Snow
12:43 PM 5.0 °F - -2.2 °F 72% 30.18 in 1.8 mi Calm Calm - N/A Snow Light Snow
12:46 PM 5.0 °F -2.1 °F -2.2 °F 72% 30.14 in 10.0 mi NE 3.5 mph - N/A   Clear
12:51 PM 6.8 °F -3.5 °F -2.2 °F 67% 30.18 in 4.0 mi NNE 5.8 mph - N/A Snow Light Snow
12:55 PM 6.1 °F -4.3 °F -2.0 °F 69% 30.18 in 10.0 mi NE 5.8 mph - 0.00 in   Clear
12:58 PM 6.8 °F -0.1 °F -2.2 °F 67% 30.17 in 10.0 mi NNE 3.5 mph - N/A   Clear
1:06 PM 6.8 °F -2.0 °F -2.2 °F 67% 30.17 in 10.0 mi NNE 4.6 mph - N/A Snow Light Snow
1:23 PM 6.8 °F -2.0 °F -0.4 °F 72% 30.17 in 10.0 mi NNE 4.6 mph - N/A   Clear
1:55 PM 7.9 °F -0.7 °F 0.3 °F 71% 30.17 in 10.0 mi NNE 4.6 mph - 0.00 in   Clear
2:55 PM 10.8 °F 4.5 °F 3.4 °F 72% 30.16 in 10.0 mi NNW 3.5 mph - N/A   Clear
3:55 PM 11.7 °F 2.3 °F 4.6 °F 73% 30.15 in 10.0 mi North 5.8 mph - N/A   Clear
4:55 PM 12.9 °F 5.2 °F 5.2 °F 71% 30.14 in 10.0 mi North 4.6 mph - N/A   Clear
5:21 PM 14.0 °F 5.1 °F 5.0 °F 67% 30.14 in 10.0 mi NNE 5.8 mph - N/A Snow Light Snow
5:32 PM 12.2 °F 2.9 °F 5.0 °F 73% 30.14 in 10.0 mi North 5.8 mph - N/A   Clear
5:55 PM 12.7 °F 3.6 °F 5.4 °F 72% 30.14 in 10.0 mi North 5.8 mph - 0.00 in   Clear
6:55 PM 9.9 °F -1.1 °F 3.7 °F 76% 30.14 in 10.0 mi North 6.9 mph - N/A   Clear
7:55 PM 6.4 °F -2.4 °F 1.6 °F 80% 30.15 in 10.0 mi NNW 4.6 mph - N/A   Clear
8:55 PM 1.8 °F -7.8 °F -2.4 °F 83% 30.16 in 10.0 mi North 4.6 mph - N/A   Clear
9:35 PM -0.4 °F -12.0 °F -5.8 °F 78% 30.17 in 10.0 mi NW 5.8 mph - N/A Snow Light Snow
9:55 PM -2.0 °F -13.9 °F -6.0 °F 83% 30.17 in 10.0 mi NNW 5.8 mph - 0.00 in Snow Light Snow
9:58 PM -2.2 °F -14.2 °F -5.8 °F 85% 30.17 in 10.0 mi North 5.8 mph - N/A   Clear
10:41 PM -4.0 °F -17.8 °F -7.6 °F 85% 30.17 in 10.0 mi NW 6.9 mph - N/A Snow Light Snow
10:55 PM -0.4 °F -14.7 °F -4.5 °F 83% 30.17 in 10.0 mi NNW 8.1 mph - 0.00 in Snow Light Snow
11:04 PM -0.4 °F -13.4 °F -4.0 °F 85% 30.17 in 10.0 mi NNW 6.9 mph - N/A   Clear
11:51 PM -0.4 °F -12.0 °F -4.0 °F 85% 30.17 in 10.0 mi NNW 5.8 mph - N/A Snow Light Snow